DLH9TK EDDS-EDDF

Flight info

Callsign DLH9TK
Flight time 0h 26m
Altitude 22000
Route ETASA4B ETASA T163 SPESA SPESA5B
Aircraft A320/M-SDE2E3FGIJ1LORWXYZ/HB1

Departure

Time 2026-05-07 09:12
Airport Stuttgart Airport (EDDS)

Arrival

Time 2026-05-07 09:38
Airport Frankfurt Main Airport (EDDF)
Time Latitude Longitude Altitude Speed Heading
2026-05-07 08:53 48.68935 9.19648 1286 ft 0 kts 344°
2026-05-07 09:02 48.68933 9.19649 1285 ft 2 kts 344°
2026-05-07 09:02 48.68913 9.19658 1288 ft 3 kts 344°
2026-05-07 09:03 48.68892 9.19667 1289 ft 3 kts 344°
2026-05-07 09:03 48.68871 9.19676 1286 ft 3 kts 344°
2026-05-07 09:03 48.68851 9.19685 1291 ft 2 kts 344°
2026-05-07 09:03 48.68849 9.19686 1291 ft 0 kts 344°
2026-05-07 09:05 48.68872 9.19729 1290 ft 7 kts 71°
2026-05-07 09:05 48.68891 9.19844 1289 ft 12 kts 95°
2026-05-07 09:06 48.68829 9.19905 1285 ft 10 kts 152°
2026-05-07 09:06 48.68826 9.19991 1287 ft 9 kts 62°
2026-05-07 09:06 48.68860 9.20145 1285 ft 19 kts 74°
2026-05-07 09:06 48.68896 9.20332 1286 ft 18 kts 73°
2026-05-07 09:07 48.68929 9.20509 1286 ft 20 kts 74°
2026-05-07 09:07 48.68975 9.20753 1285 ft 25 kts 74°
2026-05-07 09:07 48.69025 9.21017 1287 ft 27 kts 74°
2026-05-07 09:07 48.69080 9.21301 1287 ft 29 kts 74°
2026-05-07 09:08 48.69136 9.21594 1290 ft 28 kts 74°
2026-05-07 09:08 48.69188 9.21873 1285 ft 28 kts 73°
2026-05-07 09:08 48.69241 9.22153 1288 ft 27 kts 74°
2026-05-07 09:08 48.69294 9.22428 1289 ft 28 kts 74°
2026-05-07 09:09 48.69348 9.22716 1285 ft 29 kts 74°
2026-05-07 09:09 48.69401 9.22998 1287 ft 28 kts 73°
2026-05-07 09:09 48.69457 9.23293 1285 ft 29 kts 74°
2026-05-07 09:09 48.69514 9.23592 1289 ft 29 kts 74°
2026-05-07 09:10 48.69563 9.23856 1285 ft 22 kts 75°
2026-05-07 09:10 48.69598 9.24044 1289 ft 17 kts 73°
2026-05-07 09:10 48.69593 9.24203 1285 ft 15 kts 117°
2026-05-07 09:10 48.69526 9.24306 1286 ft 13 kts 161°
2026-05-07 09:11 48.69432 9.24327 1285 ft 15 kts 191°
2026-05-07 09:11 48.69367 9.24201 1285 ft 21 kts 254°
2026-05-07 09:11 48.69267 9.23676 1285 ft 87 kts 254°
2026-05-07 09:11 48.69043 9.22482 1289 ft 146 kts 254°
2026-05-07 09:12 48.68853 9.21463 1584 ft 154 kts 256°
2026-05-07 09:12 48.68570 9.19868 2303 ft 161 kts 256°
2026-05-07 09:12 48.68244 9.18158 2782 ft 180 kts 255°
2026-05-07 09:12 48.67870 9.16226 3121 ft 204 kts 255°
2026-05-07 09:13 48.67441 9.14032 3535 ft 227 kts 255°
2026-05-07 09:13 48.67014 9.11742 4558 ft 225 kts 262°
2026-05-07 09:13 48.67230 9.09396 5395 ft 233 kts 298°
2026-05-07 09:13 48.68197 9.07394 6337 ft 239 kts 312°
2026-05-07 09:14 48.69642 9.06071 7116 ft 253 kts 339°
2026-05-07 09:14 48.71408 9.05316 7727 ft 269 kts 341°
2026-05-07 09:14 48.73217 9.04491 8624 ft 274 kts 340°
2026-05-07 09:14 48.75051 9.03592 9554 ft 279 kts 339°
2026-05-07 09:15 48.76913 9.02652 10345 ft 289 kts 340°
2026-05-07 09:15 48.78975 9.02111 10685 ft 315 kts 356°
2026-05-07 09:15 48.81192 9.02527 11351 ft 328 kts 13°
2026-05-07 09:15 48.83306 9.03920 12149 ft 336 kts 29°
2026-05-07 09:16 48.85326 9.05751 12987 ft 340 kts 29°
2026-05-07 09:16 48.87413 9.07459 13784 ft 342 kts 20°
2026-05-07 09:16 48.89686 9.08540 14525 ft 343 kts
2026-05-07 09:16 48.92059 9.08973 15276 ft 344 kts
2026-05-07 09:17 48.94450 9.09300 16030 ft 347 kts
2026-05-07 09:17 48.96828 9.09635 16750 ft 350 kts
2026-05-07 09:17 48.99266 9.09984 17463 ft 353 kts
2026-05-07 09:17 49.01727 9.10340 18184 ft 357 kts
2026-05-07 09:18 49.04207 9.10702 18808 ft 360 kts
2026-05-07 09:18 49.06713 9.11067 19436 ft 363 kts
2026-05-07 09:18 49.09237 9.11426 20076 ft 365 kts
2026-05-07 09:18 49.11776 9.11786 20717 ft 368 kts
2026-05-07 09:19 49.14333 9.12154 21353 ft 371 kts
2026-05-07 09:19 49.16906 9.12524 21867 ft 374 kts
2026-05-07 09:19 49.19493 9.12896 21992 ft 370 kts
2026-05-07 09:19 49.22033 9.13262 22016 ft 369 kts
2026-05-07 09:20 49.24610 9.13625 22012 ft 373 kts
2026-05-07 09:20 49.27203 9.13991 22010 ft 375 kts
2026-05-07 09:20 49.29805 9.14359 22010 ft 375 kts
2026-05-07 09:20 49.32400 9.14728 22010 ft 375 kts
2026-05-07 09:21 49.35008 9.15100 21709 ft 377 kts
2026-05-07 09:21 49.37605 9.15472 21276 ft 373 kts
2026-05-07 09:21 49.40176 9.15846 20787 ft 369 kts
2026-05-07 09:21 49.42729 9.16220 20290 ft 367 kts
2026-05-07 09:22 49.45262 9.16583 19793 ft 365 kts
2026-05-07 09:22 49.47782 9.16940 19301 ft 362 kts
2026-05-07 09:22 49.50256 9.17604 18825 ft 362 kts 15°
2026-05-07 09:22 49.52666 9.18746 18340 ft 360 kts 15°
2026-05-07 09:23 49.55053 9.19876 17829 ft 358 kts 15°
2026-05-07 09:23 49.57422 9.20998 17313 ft 355 kts 15°
2026-05-07 09:23 49.59773 9.22117 16835 ft 352 kts 15°
2026-05-07 09:23 49.62146 9.22957 16377 ft 347 kts
2026-05-07 09:24 49.64516 9.22563 15920 ft 342 kts 346°
2026-05-07 09:24 49.66818 9.21665 15464 ft 340 kts 344°
2026-05-07 09:24 49.69102 9.20736 15028 ft 337 kts 344°
2026-05-07 09:24 49.71336 9.19823 14597 ft 335 kts 344°
2026-05-07 09:25 49.73580 9.18899 14147 ft 333 kts 344°
2026-05-07 09:25 49.75817 9.17969 13721 ft 331 kts 344°
2026-05-07 09:25 49.78040 9.17051 13518 ft 320 kts 344°
2026-05-07 09:25 49.80117 9.16202 13363 ft 304 kts 344°
2026-05-07 09:26 49.82117 9.15390 12893 ft 293 kts 344°
2026-05-07 09:26 49.84075 9.14607 12251 ft 288 kts 344°
2026-05-07 09:26 49.86005 9.13834 11608 ft 285 kts 344°
2026-05-07 09:26 49.87917 9.13081 10968 ft 282 kts 344°
2026-05-07 09:27 49.89810 9.12352 10333 ft 279 kts 344°
2026-05-07 09:27 49.91687 9.11646 9678 ft 276 kts 344°
2026-05-07 09:27 49.95371 9.10228 8298 ft 269 kts 346°
2026-05-07 09:28 49.97166 9.09852 8071 ft 249 kts 353°
2026-05-07 09:28 49.98846 9.09638 7733 ft 237 kts 354°
2026-05-07 09:28 50.00474 9.09439 7214 ft 233 kts 354°
2026-05-07 09:28 50.02083 9.09233 6678 ft 231 kts 354°
2026-05-07 09:29 50.03680 9.09021 6117 ft 229 kts 354°
2026-05-07 09:29 50.05261 9.08802 5587 ft 227 kts 354°
2026-05-07 09:29 50.06825 9.08578 5056 ft 225 kts 354°
2026-05-07 09:29 50.08380 9.08334 4515 ft 223 kts 354°
2026-05-07 09:30 50.09912 9.08087 4058 ft 219 kts 354°
2026-05-07 09:30 50.11438 9.07855 3987 ft 221 kts 354°
2026-05-07 09:30 50.12955 9.07505 3983 ft 220 kts 342°
2026-05-07 09:30 50.14372 9.06578 3987 ft 222 kts 335°
2026-05-07 09:31 50.15657 9.05267 3987 ft 223 kts 311°
2026-05-07 09:31 50.16312 9.03098 3989 ft 226 kts 279°
2026-05-07 09:31 50.16084 9.00668 3994 ft 233 kts 246°
2026-05-07 09:31 50.15135 8.98648 3992 ft 235 kts 230°
2026-05-07 09:32 50.14036 8.96755 3993 ft 232 kts 230°
2026-05-07 09:32 50.12988 8.94959 3988 ft 216 kts 230°
2026-05-07 09:32 50.12177 8.93120 4011 ft 196 kts 249°
2026-05-07 09:32 50.11683 8.91167 4009 ft 192 kts 253°
2026-05-07 09:33 50.11240 8.89271 3989 ft 182 kts 253°
2026-05-07 09:33 50.10810 8.87435 4007 ft 180 kts 253°
2026-05-07 09:33 50.10384 8.85616 3958 ft 179 kts 253°
2026-05-07 09:33 50.09954 8.83788 3785 ft 179 kts 253°
2026-05-07 09:34 50.09528 8.81979 3563 ft 177 kts 253°
2026-05-07 09:34 50.09104 8.80179 3337 ft 178 kts 253°
2026-05-07 09:34 50.08678 8.78376 3100 ft 176 kts 252°
2026-05-07 09:34 50.08262 8.76611 2855 ft 175 kts 252°
2026-05-07 09:35 50.07844 8.74843 2608 ft 174 kts 252°
2026-05-07 09:35 50.07430 8.73078 2384 ft 173 kts 254°
2026-05-07 09:35 50.07142 8.71286 2140 ft 166 kts 263°
2026-05-07 09:35 50.06947 8.69568 1900 ft 156 kts 262°
2026-05-07 09:36 50.06696 8.67970 1672 ft 148 kts 252°
2026-05-07 09:36 50.06352 8.66518 1470 ft 137 kts 253°
2026-05-07 09:36 50.06036 8.65154 1269 ft 133 kts 253°
2026-05-07 09:36 50.05715 8.63785 1091 ft 133 kts 253°
2026-05-07 09:37 50.05382 8.62417 942 ft 136 kts 252°
2026-05-07 09:37 50.05050 8.61023 745 ft 138 kts 251°
2026-05-07 09:37 50.04732 8.59632 557 ft 134 kts 252°
2026-05-07 09:37 50.04411 8.58295 382 ft 128 kts 251°
2026-05-07 09:38 50.04148 8.57173 368 ft 87 kts 250°
2026-05-07 09:38 50.03997 8.56537 359 ft 43 kts 249°
2026-05-07 09:38 50.03902 8.56132 355 ft 34 kts 253°
2026-05-07 09:38 50.03891 8.55813 351 ft 25 kts 278°
2026-05-07 09:39 50.03906 8.55677 351 ft 11 kts 286°
2026-05-07 09:39 50.03975 8.55659 352 ft 13 kts 51°
2026-05-07 09:39 50.04008 8.55777 351 ft 11 kts 68°
2026-05-07 09:39 50.04037 8.55900 352 ft 17 kts 70°
2026-05-07 09:40 50.04080 8.56080 356 ft 17 kts 70°
2026-05-07 09:40 50.04121 8.56253 354 ft 21 kts 69°
2026-05-07 09:40 50.04177 8.56486 358 ft 24 kts 69°
2026-05-07 09:40 50.04235 8.56729 361 ft 24 kts 70°
2026-05-07 09:41 50.04295 8.56980 360 ft 26 kts 70°
2026-05-07 09:41 50.04359 8.57248 367 ft 27 kts 69°
2026-05-07 09:41 50.04423 8.57518 362 ft 27 kts 70°
2026-05-07 09:41 50.04484 8.57775 365 ft 22 kts 70°
2026-05-07 09:42 50.04531 8.57969 368 ft 15 kts 70°
2026-05-07 09:42 50.04616 8.58014 362 ft 17 kts 338°
2026-05-07 09:42 50.04726 8.57951 364 ft 16 kts 346°
2026-05-07 09:42 50.04803 8.58055 360 ft 16 kts 69°
2026-05-07 09:43 50.04840 8.58208 362 ft 14 kts 70°
2026-05-07 09:43 50.04872 8.58342 361 ft 13 kts 69°
2026-05-07 09:43 50.04911 8.58506 362 ft 17 kts 69°
2026-05-07 09:43 50.04946 8.58653 366 ft 10 kts 70°
2026-05-07 09:44 50.04959 8.58753 364 ft 8 kts 113°
2026-05-07 09:44 50.04921 8.58785 361 ft 5 kts 161°
2026-05-07 09:44 50.04903 8.58794 366 ft 1 kts 160°
2026-05-07 09:44 50.04901 8.58796 366 ft 0 kts 160°